STARLINK-1541, 46052

Orbit data source: Space-Track

STARLINK-1541, 46052 is a payload satellite owned by SpaceX/Seattle (US) in LEO that was launched on Fri, 07 Aug 2020 UTC via an FALCON 9 launch vehicle from the Air Force Eastern Test Range (AFETR). Payload-class satellites include a variety of spacecraft equipped with specific instruments for various scientific and technological missions. These include communications satellites like Starlink; space stations such as the ISS; scientific satellites like the Hubble; Earth observation satellites from companies like Planet Labs, Umbra, and HawkEye 360; GPS; miniature CubeSats for education and research; and military/defense satellites.

Loading next visibility...
Identifier
46052, 2020-055AB
Orbit
LEO
Country
Flag of USUS
Related business
Manufacturer
SpaceX/Seattle
Mission
Operational Commercial Communications
Bus & Motor
STARLINK, Unknown motor
Mass
260 kg wet, ~248 kg dry
Launch date (UTC)
2020-08-07 (6 years ago)
Launch vehicle
FALCON 9
Launch site
Air Force Eastern Test Range (AFETR)
Object type
Payload
Rocket body
Debris
Shape & HBR
Box + 1 Pan, 10.1 m
Radar Cross Section
13.562 m², Large (>1 m²)

Expand to show TLE details & history
Last TLE update: 4 hours ago

TLE from 4 hours ago
0 STARLINK-1541
1 46052U 20055AB  26123.33334491  .01036798  00000-0  79018-2 0  9994
2 46052  53.1595 215.9473 0001236  84.5134 145.0862 15.69045451  5769
Epoch: 2026-05-03T08:00Z
TLE epoch observation values (Epoch: 2026-05-03T08:00:01.000Z)
Latitude
-37.76611°
Longitude
89.95701°
Altitude
374.557 km
Speed
7.684 km/s
True Right ascension
04h 44m 47s
True Declination
-37° 35' 25"
Sunlit
Object was in daylight at epoch
Visualization orbit readout
Latitude
Unknown
Longitude
Unknown
Altitude
Unknown
Speed
Unknown
Apparent Right ascension
Unknown
Apparent Declination
Unknown
Sunlit
N/A
Visualization observer readout
Local Sidereal Time
19:39:01
Azimuth
Unknown
Elevation
Unknown
Doppler factor
Unknown
Orbital elements
Apogee altitude
362.723 km
Perigee altitude
361.057 km
Semi-major axis
6,740.027 km
Eccentricity
0.00012
Inclination
53.1595°
RAAN
215.9473°
Arg. of periapsis
84.5134°
True anomaly
145.09431°
Mean anomaly
145.0862°
Eccentric anomaly
145.09025°
Mean motion
3.92239 °/min
Orbital period
91.78 mins
BSTAR
0.0079018
Loading maneuver chart data...
Computing Atmospheric mass density...

Documentation

Showing up to 5 results
|